Location: Newark
(43.0000°N, 1.6781°W)
Time: 08:26:11
(UTC+00:00)

Tiros 1 despin weight - Visible Passes

Search period start: 07 October 2022 00:00
Search period end: 17 October 2022 00:00
Orbit: 591 x 638 km, 48.2° (Epoch: 07 October)

Date Brightness Start Highest point End Pass type
(mag) Time Alt. Az. Time Alt. Az. Time Alt. Az.
07 Oct ? 19:35:58 10° WNW 19:40:31 74° SSW 19:40:56 68° SSE visible
08 Oct ? 18:09:50 10° WNW 18:14:19 59° NNE 18:18:43 11° E visible
08 Oct ? 19:51:25 10° WNW 19:55:42 44° SW 19:55:42 44° SW visible
09 Oct ? 18:25:10 10° WNW 18:29:43 84° NNE 18:33:33 15° ESE visible
09 Oct ? 20:07:07 10° W 20:10:33 25° SW 20:10:33 25° SW visible
10 Oct ? 18:40:32 10° WNW 18:45:00 62° SSW 18:48:30 17° SE visible
10 Oct ? 20:23:32 10° WSW 20:25:30 14° SW 20:25:30 14° SW visible
11 Oct ? 18:56:01 10° WNW 19:00:11 36° SW 19:03:35 14° SSE visible
12 Oct ? 19:11:51 10° W 19:15:13 21° SW 19:18:37 10° S visible
13 Oct ? 19:29:08 10° WSW 19:30:08 11° SW 19:31:09 10° SW visible
14 Oct ? 18:00:35 10° W 18:04:31 30° SW 18:08:29 10° SSE visible
15 Oct ? 18:16:38 10° W 18:19:30 17° SW 18:22:23 10° S visible
